Date String (YYYY-MM-DD hh:mm:ss) UTC,Instrument flags,Ambient pressure (hPa),Sample flow (lpm),Bypass flow (lpm),Sample temperature (°C),Ambient temperature (°C),ASC tube jacket temperature (°C),LED temperature (°C),Box temperature (°C),Sample RH (%),Span deviation,Mass concentration (μg/m³),Mass concentration (μg/m³),Mass concentration (μg/m³)
DateTimeUTC,F1_M11,P_M11,Q1_M11,Q2_M11,T1_M11,T2_M11,T3_M11,T4_M11,T5_M11,U1_M11,ZSPAN_M11,X0_M11,X2_M11,X1_M11
2022-01-23 15:00:00,,0829.6,5.02,0.00,22.5,21.8,00.0,31.4,24.2,08.0,0000.0,0001.35,0000.79,0000.59
2022-01-23 15:01:00,,0829.3,4.99,0.00,22.4,21.8,00.0,31.4,24.2,08.0,0000.0,0001.31,0000.78,0000.59
2022-01-23 15:02:00,,0829.3,5.01,0.00,22.4,21.8,00.0,31.4,24.2,08.0,0000.0,0001.30,0000.77,0000.59
2022-01-23 15:03:00,,0829.2,4.99,0.00,22.4,21.8,00.0,31.4,24.2,08.0,0000.0,0001.28,0000.77,0000.58
2022-01-23 15:04:00,,0829.2,5.00,0.00,22.4,21.8,00.0,31.4,24.2,07.9,0000.0,0001.21,0000.76,0000.58
2022-01-23 15:05:00,,0829.2,4.99,0.00,22.4,21.8,00.0,31.4,24.2,07.9,0000.0,0001.17,0000.74,0000.57
2022-01-23 15:06:00,,0829.2,4.99,0.00,22.4,21.8,00.0,31.4,24.1,07.9,0000.0,0001.08,0000.70,0000.56
2022-01-23 15:07:00,,0829.3,5.01,0.00,22.4,21.7,00.0,31.4,24.1,07.9,0000.0,0001.02,0000.66,0000.55
2022-01-23 15:08:00,,0829.3,5.01,0.00,22.4,21.7,00.0,31.4,24.2,07.9,0000.0,0000.98,0000.64,0000.55
2022-01-23 15:09:00,,0829.2,4.99,0.00,22.4,21.7,00.0,31.4,24.1,08.0,0000.0,0000.88,0000.65,0000.56
2022-01-23 15:10:00,,0829.2,5.01,0.00,22.4,21.7,00.0,31.4,24.1,07.9,0000.0,0000.89,0000.67,0000.58
2022-01-23 15:11:00,,0829.2,4.99,0.00,22.4,21.7,00.0,31.4,24.1,08.0,0000.0,0000.91,0000.66,0000.57
2022-01-23 15:12:00,,0829.2,5.01,0.00,22.4,21.7,00.0,31.4,24.1,08.0,0000.0,0000.99,0000.67,0000.57
2022-01-23 15:13:00,,0829.2,4.99,0.00,22.4,22.1,00.0,31.4,24.2,08.0,0000.0,0000.99,0000.68,0000.58
2022-01-23 15:14:00,,0829.2,5.00,0.00,22.6,23.0,00.0,31.4,24.4,07.9,0000.0,0000.96,0000.66,0000.59
2022-01-23 15:15:00,,0829.2,5.01,0.00,22.7,23.4,00.0,31.5,24.6,07.9,0000.0,0000.88,0000.64,0000.59
2022-01-23 15:16:00,,0829.2,5.00,0.00,22.7,23.2,00.0,31.5,24.7,07.8,0000.0,0000.89,0000.65,0000.61
2022-01-23 15:17:00,,0829.2,4.99,0.00,22.7,23.0,00.0,31.5,24.6,08.0,0000.0,0000.94,0000.68,0000.62
2022-01-23 15:18:00,,0829.2,5.01,0.00,22.7,22.8,00.0,31.5,24.6,07.9,0000.0,0000.97,0000.70,0000.63
2022-01-23 15:19:00,,0829.2,5.01,0.00,22.7,22.7,00.0,31.6,24.6,08.0,0000.0,0000.97,0000.70,0000.63
2022-01-23 15:20:00,,0829.3,4.99,0.00,22.7,22.5,00.0,31.6,24.5,08.2,0000.0,0000.99,0000.70,0000.61
2022-01-23 15:21:00,,0829.2,5.01,0.00,22.7,22.4,00.0,31.6,24.5,08.1,0000.0,0000.94,0000.68,0000.60
2022-01-23 15:22:00,,0829.2,4.98,0.00,22.7,22.4,00.0,31.6,24.5,08.1,0000.0,0000.95,0000.68,0000.60
2022-01-23 15:23:00,,0829.2,4.99,0.00,22.7,22.3,00.0,31.6,24.5,08.3,0000.0,0001.09,0000.69,0000.58
2022-01-23 15:24:00,,0829.2,4.99,0.00,22.7,22.3,00.0,31.6,24.5,08.2,0000.0,0001.49,0000.71,0000.57
2022-01-23 15:25:00,,0829.2,5.01,0.00,22.7,22.3,00.0,31.6,24.5,08.2,0000.0,0001.47,0000.70,0000.56
2022-01-23 15:26:00,,0829.2,4.99,0.00,22.7,22.2,00.0,31.6,24.5,08.2,0000.0,0001.51,0000.71,0000.56
2022-01-23 15:27:00,,0829.2,5.01,0.00,22.7,22.2,00.0,31.6,24.5,08.1,0000.0,0001.58,0000.70,0000.54
2022-01-23 15:28:00,,0829.2,4.99,0.00,22.7,22.2,00.0,31.6,24.5,08.1,0000.0,0001.56,0000.68,0000.52
2022-01-23 15:29:00,,0829.2,5.00,0.00,22.7,22.2,00.0,31.6,24.5,08.2,0000.0,0002.07,0000.66,0000.51
2022-01-23 15:30:00,,0829.2,5.00,0.00,22.7,22.2,00.0,31.6,24.5,08.2,0000.0,0002.56,0000.66,0000.50
2022-01-23 15:31:00,,0829.2,4.99,0.00,22.7,22.2,00.0,31.7,24.5,08.6,0000.0,0002.59,0000.66,0000.50
2022-01-23 15:32:00,,0829.3,5.01,0.00,22.7,22.1,00.0,31.7,24.5,09.0,0000.0,0002.66,0000.68,0000.50
2022-01-23 15:33:00,,0829.2,4.99,0.00,22.7,22.1,00.0,31.7,24.5,09.0,0000.0,0002.67,0000.68,0000.49
2022-01-23 15:34:00,,0829.2,5.00,0.00,22.8,22.2,00.0,31.7,24.6,09.1,0000.0,0002.66,0000.69,0000.49
2022-01-23 15:35:00,,0829.2,5.00,0.00,22.8,22.1,00.0,31.7,24.6,09.3,0000.0,0002.05,0000.66,0000.50
2022-01-23 15:36:00,,0829.2,5.00,0.00,22.8,22.2,00.0,31.7,24.6,09.3,0000.0,0002.03,0000.65,0000.49
2022-01-23 15:37:00,,0829.2,5.00,0.00,22.8,22.2,00.0,31.7,24.6,09.5,0000.0,0002.10,0000.64,0000.48
2022-01-23 15:38:00,,0829.2,4.99,0.00,22.8,22.2,00.0,31.7,24.6,09.6,0000.0,0002.07,0000.66,0000.50
2022-01-23 15:39:00,,0829.2,5.00,0.00,22.8,22.2,00.0,31.7,24.6,09.5,0000.0,0002.09,0000.67,0000.50
2022-01-23 15:40:00,,0829.2,5.00,0.00,22.8,22.2,00.0,31.7,24.6,09.1,0000.0,0001.72,0000.68,0000.50
2022-01-23 15:41:00,,0829.2,5.00,0.00,22.8,22.2,00.0,31.7,24.6,09.2,0000.0,0001.89,0000.70,0000.51
2022-01-23 15:42:00,,0829.2,4.99,0.00,22.9,22.2,00.0,31.7,24.6,09.5,0000.0,0001.98,0000.69,0000.50
2022-01-23 15:43:00,,0829.2,5.02,0.00,22.9,22.2,00.0,31.7,24.7,09.2,0000.0,0001.93,0000.67,0000.51
2022-01-23 15:44:00,,0829.2,4.99,0.00,22.9,22.3,00.0,31.7,24.7,09.6,0000.0,0001.97,0000.68,0000.52
2022-01-23 15:45:00,,0829.2,5.01,0.00,22.9,22.3,00.0,31.8,24.7,09.8,0000.0,0002.05,0000.70,0000.55
2022-01-23 15:46:00,,0829.2,4.98,0.00,22.9,22.3,00.0,31.8,24.7,09.6,0000.0,0002.13,0000.77,0000.62
2022-01-23 15:47:00,,0829.2,5.01,0.00,22.9,22.3,00.0,31.8,24.7,09.6,0000.0,0002.23,0000.86,0000.71
2022-01-23 15:48:00,,0829.2,4.99,0.00,22.9,22.3,00.0,31.8,24.7,09.9,0000.0,0002.29,0000.95,0000.79
2022-01-23 15:49:00,,0829.3,5.01,0.00,22.9,22.3,00.0,31.8,24.7,09.9,0000.0,0002.30,0000.99,0000.84
2022-01-23 15:50:00,,0829.2,4.99,0.00,22.9,22.2,00.0,31.8,24.7,09.7,0000.0,0002.81,0001.03,0000.89
2022-01-23 15:51:00,,0829.1,5.00,0.00,22.9,22.2,00.0,31.8,24.7,09.6,0000.0,0003.50,0001.07,0000.92
2022-01-23 15:52:00,,0829.1,5.01,0.00,22.9,22.2,00.0,31.8,24.6,09.2,0000.0,0002.73,0001.09,0000.96
2022-01-23 15:53:00,,0829.1,5.00,0.00,22.9,22.2,00.0,31.8,24.6,09.2,0000.0,0002.75,0001.15,0001.00
2022-01-23 15:54:00,,0829.0,5.01,0.00,22.9,22.2,00.0,31.8,24.6,09.4,0000.0,0002.78,0001.18,0001.02
2022-01-23 15:55:00,,0828.9,4.99,0.00,22.8,22.1,00.0,31.8,24.6,09.2,0000.0,0002.84,0001.21,0001.04
2022-01-23 15:56:00,,0828.9,5.01,0.00,22.8,22.1,00.0,31.8,24.6,08.9,0000.0,0003.08,0001.25,0001.05
2022-01-23 15:57:00,,0828.9,4.98,0.00,22.8,22.1,00.0,31.8,24.6,09.2,0000.0,0003.26,0001.26,0001.04
2022-01-23 15:58:00,,0828.9,5.01,0.00,22.8,22.0,00.0,31.8,24.6,09.7,0000.0,0003.53,0001.32,0001.02
2022-01-23 15:59:00,,0828.9,4.99,0.00,22.8,22.0,00.0,31.7,24.5,09.9,0000.0,0003.54,0001.33,0001.01
